Time,TemperatureF,DewpointF,PressureIn,WindDirection,WindDirectionDegrees,WindSpeedMPH,WindSpeedGustMPH,Humidity,HourlyPrecipIn,Conditions,Clouds,dailyrainin,SolarRadiationWatts/m^2,SoftwareType,DateUTC
2013-01-09 00:03:00,73.0,70.0,-100.00,ESE,116,8.0,18.0,90,0.00,,,0.00,0.000000,,2013-01-09 05:03:00,
2013-01-09 00:12:00,73.0,70.0,-100.00,ESE,116,8.0,18.0,90,0.00,,,0.00,0.000000,,2013-01-09 05:12:00,
2013-01-09 00:22:00,73.0,70.0,-100.00,ESE,116,8.0,18.0,90,0.00,,,0.00,0.000000,,2013-01-09 05:22:00,
2013-01-09 00:32:00,71.0,70.0,-100.00,East,93,4.0,9.0,96,0.00,,,0.00,0.000000,,2013-01-09 05:32:00,
2013-01-09 00:53:00,71.0,70.0,-100.00,East,93,4.0,9.0,96,0.00,,,0.00,0.000000,,2013-01-09 05:53:00,
2013-01-09 01:02:00,71.0,70.0,-100.00,East,93,4.0,9.0,96,0.00,,,0.00,0.000000,,2013-01-09 06:02:00,
2013-01-09 01:12:00,71.0,70.0,-100.00,East,93,4.0,9.0,96,0.00,,,0.00,0.000000,,2013-01-09 06:12:00,
2013-01-09 01:22:00,71.0,70.0,-100.00,East,93,4.0,9.0,96,0.00,,,0.00,0.000000,,2013-01-09 06:22:00,
2013-01-09 01:32:00,71.0,70.0,-100.00,NE,45,4.0,5.0,98,0.00,,,0.00,0.000000,,2013-01-09 06:32:00,
2013-01-09 01:53:00,71.0,70.0,-100.00,NE,45,4.0,5.0,98,0.00,,,0.00,0.000000,,2013-01-09 06:53:00,
2013-01-09 02:02:00,71.0,70.0,-100.00,NE,45,4.0,5.0,98,0.00,,,0.00,0.000000,,2013-01-09 07:02:00,
2013-01-09 02:12:00,71.0,70.0,-100.00,NE,45,4.0,5.0,98,0.00,,,0.00,0.000000,,2013-01-09 07:12:00,
2013-01-09 02:22:00,71.0,70.0,-100.00,NE,45,4.0,5.0,98,0.00,,,0.00,0.000000,,2013-01-09 07:22:00,
2013-01-09 02:32:00,71.0,70.0,-100.00,ENE,78,4.0,6.0,98,0.00,,,0.00,0.000000,,2013-01-09 07:32:00,
2013-01-09 02:52:00,71.0,70.0,-100.00,ENE,78,4.0,6.0,98,0.00,,,0.00,0.000000,,2013-01-09 07:52:00,
2013-01-09 03:02:00,71.0,70.0,-100.00,ENE,78,4.0,6.0,98,0.00,,,0.00,0.000000,,2013-01-09 08:02:00,
2013-01-09 03:12:00,71.0,70.0,-100.00,ENE,78,4.0,6.0,98,0.00,,,0.00,0.000000,,2013-01-09 08:12:00,
2013-01-09 03:22:00,71.0,70.0,-100.00,ENE,78,4.0,6.0,98,0.00,,,0.00,0.000000,,2013-01-09 08:22:00,
2013-01-09 03:32:00,72.0,71.0,-100.00,ESE,103,5.0,7.0,97,0.00,,,0.00,0.000000,,2013-01-09 08:32:00,
2013-01-09 03:53:00,72.0,71.0,-100.00,ESE,103,5.0,7.0,97,0.00,,,0.00,0.000000,,2013-01-09 08:53:00,
2013-01-09 04:02:00,72.0,71.0,-100.00,ESE,103,5.0,7.0,97,0.00,,,0.00,0.000000,,2013-01-09 09:02:00,
2013-01-09 04:12:00,72.0,71.0,-100.00,ESE,103,5.0,7.0,97,0.00,,,0.00,0.000000,,2013-01-09 09:12:00,
2013-01-09 04:22:00,72.0,71.0,-100.00,ESE,103,5.0,7.0,97,0.00,,,0.00,0.000000,,2013-01-09 09:22:00,
2013-01-09 04:32:00,72.0,70.0,-100.00,ESE,106,5.0,7.0,95,0.00,,,0.00,0.000000,,2013-01-09 09:32:00,
2013-01-09 04:53:00,72.0,70.0,-100.00,ESE,106,5.0,7.0,95,0.00,,,0.00,0.000000,,2013-01-09 09:53:00,
2013-01-09 05:02:00,72.0,70.0,-100.00,ESE,106,5.0,7.0,95,0.00,,,0.00,0.000000,,2013-01-09 10:02:00,
2013-01-09 05:12:00,72.0,70.0,-100.00,ESE,106,5.0,7.0,95,0.00,,,0.00,0.000000,,2013-01-09 10:12:00,
2013-01-09 05:22:00,72.0,70.0,-100.00,ESE,106,5.0,7.0,95,0.00,,,0.00,0.000000,,2013-01-09 10:22:00,
2013-01-09 05:32:00,72.0,70.0,-100.00,SE,130,6.0,8.0,95,0.00,,,0.00,0.000000,,2013-01-09 10:32:00,
2013-01-09 05:52:00,72.0,70.0,-100.00,SE,130,6.0,8.0,95,0.00,,,0.00,0.000000,,2013-01-09 10:52:00,
2013-01-09 06:02:00,72.0,70.0,-100.00,SE,130,6.0,8.0,95,0.00,,,0.00,0.000000,,2013-01-09 11:02:00,
2013-01-09 06:12:00,72.0,70.0,-100.00,SE,130,6.0,8.0,95,0.00,,,0.00,0.000000,,2013-01-09 11:12:00,
2013-01-09 06:22:00,72.0,70.0,-100.00,SE,130,6.0,8.0,95,0.00,,,0.00,0.000000,,2013-01-09 11:22:00,
2013-01-09 06:32:00,72.0,69.0,-100.00,SE,128,8.0,13.0,91,0.00,,,0.00,0.000000,,2013-01-09 11:32:00,
2013-01-09 06:53:00,72.0,69.0,-100.00,SE,128,8.0,13.0,91,0.00,,,0.00,0.000000,,2013-01-09 11:53:00,
2013-01-09 07:03:00,72.0,69.0,-100.00,SE,128,8.0,13.0,91,0.00,,,0.00,0.000000,,2013-01-09 12:03:00,
2013-01-09 07:12:00,72.0,69.0,-100.00,SE,128,8.0,13.0,91,0.00,,,0.00,0.000000,,2013-01-09 12:12:00,
2013-01-09 07:23:00,72.0,69.0,-100.00,SE,128,8.0,13.0,91,0.00,,,0.00,0.000000,,2013-01-09 12:23:00,
2013-01-09 07:32:00,71.0,69.0,-100.00,ESE,109,5.0,10.0,93,0.00,,,0.00,5.000000,,2013-01-09 12:32:00,
2013-01-09 07:53:00,71.0,69.0,-100.00,ESE,109,5.0,10.0,93,0.00,,,0.00,5.000000,,2013-01-09 12:53:00,
2013-01-09 08:03:00,71.0,69.0,-100.00,ESE,109,5.0,10.0,93,0.00,,,0.00,5.000000,,2013-01-09 13:03:00,
2013-01-09 08:12:00,71.0,69.0,-100.00,ESE,109,5.0,10.0,93,0.00,,,0.00,5.000000,,2013-01-09 13:12:00,
2013-01-09 08:23:00,71.0,69.0,-100.00,ESE,109,5.0,10.0,93,0.00,,,0.00,5.000000,,2013-01-09 13:23:00,
2013-01-09 08:32:00,77.0,71.0,-100.00,ESE,106,8.0,12.0,82,0.00,,,0.00,112.000000,,2013-01-09 13:32:00,
2013-01-09 08:53:00,77.0,71.0,-100.00,ESE,106,8.0,12.0,82,0.00,,,0.00,112.000000,,2013-01-09 13:53:00,
2013-01-09 09:03:00,77.0,71.0,-100.00,ESE,106,8.0,12.0,82,0.00,,,0.00,112.000000,,2013-01-09 14:03:00,
2013-01-09 09:12:00,77.0,71.0,-100.00,ESE,106,8.0,12.0,82,0.00,,,0.00,112.000000,,2013-01-09 14:12:00,
2013-01-09 09:23:00,77.0,71.0,-100.00,ESE,106,8.0,12.0,82,0.00,,,0.00,112.000000,,2013-01-09 14:23:00,
2013-01-09 09:32:00,80.0,70.0,-100.00,ESE,121,11.0,17.0,72,0.00,,,0.00,243.000000,,2013-01-09 14:32:00,
2013-01-09 09:53:00,80.0,70.0,-100.00,ESE,121,11.0,17.0,72,0.00,,,0.00,243.000000,,2013-01-09 14:53:00,
2013-01-09 10:04:00,80.0,70.0,-100.00,ESE,121,11.0,17.0,72,0.00,,,0.00,243.000000,,2013-01-09 15:04:00,
2013-01-09 10:13:00,80.0,70.0,-100.00,ESE,121,11.0,17.0,72,0.00,,,0.00,243.000000,,2013-01-09 15:13:00,
2013-01-09 10:23:00,80.0,70.0,-100.00,ESE,121,11.0,17.0,72,0.00,,,0.00,243.000000,,2013-01-09 15:23:00,
2013-01-09 10:32:00,80.0,69.0,-100.00,ESE,117,12.0,20.0,70,0.00,,,0.00,340.000000,,2013-01-09 15:32:00,
2013-01-09 10:53:00,80.0,69.0,-100.00,ESE,117,12.0,20.0,70,0.00,,,0.00,340.000000,,2013-01-09 15:53:00,
2013-01-09 11:04:00,80.0,69.0,-100.00,ESE,117,12.0,20.0,70,0.00,,,0.00,340.000000,,2013-01-09 16:04:00,
2013-01-09 11:12:00,80.0,69.0,-100.00,ESE,117,12.0,20.0,70,0.00,,,0.00,340.000000,,2013-01-09 16:12:00,
2013-01-09 11:23:00,80.0,69.0,-100.00,ESE,117,12.0,20.0,70,0.00,,,0.00,340.000000,,2013-01-09 16:23:00,
2013-01-09 11:32:00,81.0,69.0,-100.00,ESE,120,13.0,22.0,66,0.00,,,0.00,450.000000,,2013-01-09 16:32:00,
2013-01-09 11:53:00,81.0,69.0,-100.00,ESE,120,13.0,22.0,66,0.00,,,0.00,450.000000,,2013-01-09 16:53:00,
2013-01-09 12:03:00,81.0,69.0,-100.00,ESE,120,13.0,22.0,66,0.00,,,0.00,450.000000,,2013-01-09 17:03:00,
2013-01-09 12:12:00,81.0,69.0,-100.00,ESE,120,13.0,22.0,66,0.00,,,0.00,450.000000,,2013-01-09 17:12:00,
2013-01-09 12:23:00,81.0,69.0,-100.00,ESE,120,13.0,22.0,66,0.00,,,0.00,450.000000,,2013-01-09 17:23:00,
2013-01-09 12:32:00,81.0,69.0,-100.00,ESE,112,14.0,22.0,67,0.00,,,0.00,454.000000,,2013-01-09 17:32:00,
2013-01-09 12:53:00,81.0,69.0,-100.00,ESE,112,14.0,22.0,67,0.00,,,0.00,454.000000,,2013-01-09 17:53:00,
2013-01-09 13:03:00,81.0,69.0,-100.00,ESE,112,14.0,22.0,67,0.00,,,0.00,454.000000,,2013-01-09 18:03:00,
2013-01-09 13:13:00,81.0,69.0,-100.00,ESE,112,14.0,22.0,67,0.00,,,0.00,454.000000,,2013-01-09 18:13:00,
2013-01-09 13:24:00,81.0,69.0,-100.00,ESE,112,14.0,22.0,67,0.00,,,0.00,454.000000,,2013-01-09 18:24:00,
2013-01-09 13:32:00,81.0,69.0,-100.00,SE,125,14.0,20.0,66,0.00,,,0.00,457.000000,,2013-01-09 18:32:00,
2013-01-09 13:53:00,81.0,69.0,-100.00,SE,125,14.0,20.0,66,0.00,,,0.00,457.000000,,2013-01-09 18:53:00,
2013-01-09 14:03:00,81.0,69.0,-100.00,SE,125,14.0,20.0,66,0.00,,,0.00,457.000000,,2013-01-09 19:03:00,
2013-01-09 14:13:00,81.0,69.0,-100.00,SE,125,14.0,20.0,66,0.00,,,0.00,457.000000,,2013-01-09 19:13:00,
2013-01-09 14:23:00,81.0,69.0,-100.00,SE,125,14.0,20.0,66,0.00,,,0.00,457.000000,,2013-01-09 19:23:00,
2013-01-09 14:32:00,83.0,69.0,-100.00,ESE,119,12.0,20.0,63,0.00,,,0.00,398.000000,,2013-01-09 19:32:00,
2013-01-09 14:53:00,83.0,69.0,-100.00,ESE,119,12.0,20.0,63,0.00,,,0.00,398.000000,,2013-01-09 19:53:00,
2013-01-09 15:03:00,83.0,69.0,-100.00,ESE,119,12.0,20.0,63,0.00,,,0.00,398.000000,,2013-01-09 20:03:00,
2013-01-09 15:12:00,83.0,69.0,-100.00,ESE,119,12.0,20.0,63,0.00,,,0.00,398.000000,,2013-01-09 20:12:00,
2013-01-09 15:23:00,83.0,69.0,-100.00,ESE,119,12.0,20.0,63,0.00,,,0.00,398.000000,,2013-01-09 20:23:00,
2013-01-09 15:32:00,81.0,68.0,-100.00,SE,129,12.0,17.0,64,0.00,,,0.00,368.000000,,2013-01-09 20:32:00,
2013-01-09 15:53:00,81.0,68.0,-100.00,SE,129,12.0,17.0,64,0.00,,,0.00,368.000000,,2013-01-09 20:53:00,
2013-01-09 16:04:00,81.0,68.0,-100.00,SE,129,12.0,17.0,64,0.00,,,0.00,368.000000,,2013-01-09 21:04:00,
2013-01-09 16:13:00,81.0,68.0,-100.00,SE,129,12.0,17.0,64,0.00,,,0.00,368.000000,,2013-01-09 21:13:00,
2013-01-09 16:23:00,81.0,68.0,-100.00,SE,129,12.0,17.0,64,0.00,,,0.00,368.000000,,2013-01-09 21:23:00,
2013-01-09 16:32:00,80.0,69.0,-100.00,ESE,109,9.0,19.0,69,0.00,,,0.00,269.000000,,2013-01-09 21:32:00,
2013-01-09 16:53:00,80.0,69.0,-100.00,ESE,109,9.0,19.0,69,0.00,,,0.00,269.000000,,2013-01-09 21:53:00,
2013-01-09 17:03:00,80.0,69.0,-100.00,ESE,109,9.0,19.0,69,0.00,,,0.00,269.000000,,2013-01-09 22:03:00,
2013-01-09 17:12:00,80.0,69.0,-100.00,ESE,109,9.0,19.0,69,0.00,,,0.00,269.000000,,2013-01-09 22:12:00,
2013-01-09 17:23:00,80.0,69.0,-100.00,ESE,109,9.0,19.0,69,0.00,,,0.00,269.000000,,2013-01-09 22:23:00,
2013-01-09 17:32:00,77.0,68.0,-100.00,ESE,103,9.0,17.0,75,0.00,,,0.00,80.000000,,2013-01-09 22:32:00,
2013-01-09 17:53:00,77.0,68.0,-100.00,ESE,103,9.0,17.0,75,0.00,,,0.00,80.000000,,2013-01-09 22:53:00,
2013-01-09 18:03:00,77.0,68.0,-100.00,ESE,103,9.0,17.0,75,0.00,,,0.00,80.000000,,2013-01-09 23:03:00,
2013-01-09 18:13:00,77.0,68.0,-100.00,ESE,103,9.0,17.0,75,0.00,,,0.00,80.000000,,2013-01-09 23:13:00,
2013-01-09 18:23:00,77.0,68.0,-100.00,ESE,103,9.0,17.0,75,0.00,,,0.00,80.000000,,2013-01-09 23:23:00,
2013-01-09 18:32:00,75.0,70.0,-100.00,East,99,6.0,12.0,84,0.00,,,0.00,4.000000,,2013-01-09 23:32:00,
2013-01-09 18:53:00,75.0,70.0,-100.00,East,99,6.0,12.0,84,0.00,,,0.00,4.000000,,2013-01-09 23:53:00,
2013-01-09 19:03:00,75.0,70.0,-100.00,East,99,6.0,12.0,84,0.00,,,0.00,4.000000,,2013-01-10 00:03:00,
2013-01-09 19:12:00,75.0,70.0,-100.00,East,99,6.0,12.0,84,0.00,,,0.00,4.000000,,2013-01-10 00:12:00,
2013-01-09 19:22:00,75.0,70.0,-100.00,East,99,6.0,12.0,84,0.00,,,0.00,4.000000,,2013-01-10 00:22:00,
2013-01-09 19:32:00,73.0,70.0,-100.00,East,80,5.0,8.0,90,0.00,,,0.00,0.000000,,2013-01-10 00:32:00,
2013-01-09 19:53:00,73.0,70.0,-100.00,East,80,5.0,8.0,90,0.00,,,0.00,0.000000,,2013-01-10 00:53:00,
2013-01-09 20:03:00,73.0,70.0,-100.00,East,80,5.0,8.0,90,0.00,,,0.00,0.000000,,2013-01-10 01:03:00,
2013-01-09 20:12:00,73.0,70.0,-100.00,East,80,5.0,8.0,90,0.00,,,0.00,0.000000,,2013-01-10 01:12:00,
2013-01-09 20:22:00,73.0,70.0,-100.00,East,80,5.0,8.0,90,0.00,,,0.00,0.000000,,2013-01-10 01:22:00,
2013-01-09 20:32:00,72.0,69.0,-100.00,ENE,72,5.0,8.0,91,0.00,,,0.00,0.000000,,2013-01-10 01:32:00,
2013-01-09 20:53:00,72.0,69.0,-100.00,ENE,72,5.0,8.0,91,0.00,,,0.00,0.000000,,2013-01-10 01:53:00,
2013-01-09 21:03:00,72.0,69.0,-100.00,ENE,72,5.0,8.0,91,0.00,,,0.00,0.000000,,2013-01-10 02:03:00,
2013-01-09 21:13:00,72.0,69.0,-100.00,ENE,72,5.0,8.0,91,0.00,,,0.00,0.000000,,2013-01-10 02:13:00,
2013-01-09 21:22:00,72.0,69.0,-100.00,ENE,72,5.0,8.0,91,0.00,,,0.00,0.000000,,2013-01-10 02:22:00,
2013-01-09 21:32:00,71.0,69.0,-100.00,ENE,66,5.0,7.0,93,0.00,,,0.00,0.000000,,2013-01-10 02:32:00,
2013-01-09 22:03:00,71.0,69.0,-100.00,ENE,66,5.0,7.0,93,0.00,,,0.00,0.000000,,2013-01-10 03:03:00,
2013-01-09 22:12:00,71.0,69.0,-100.00,ENE,66,5.0,7.0,93,0.00,,,0.00,0.000000,,2013-01-10 03:12:00,
2013-01-09 22:22:00,71.0,69.0,-100.00,ENE,66,5.0,7.0,93,0.00,,,0.00,0.000000,,2013-01-10 03:22:00,
2013-01-09 22:32:00,72.0,69.0,-100.00,East,90,7.0,9.0,91,0.00,,,0.00,0.000000,,2013-01-10 03:32:00,
2013-01-09 22:53:00,72.0,69.0,-100.00,East,90,7.0,9.0,91,0.00,,,0.00,0.000000,,2013-01-10 03:53:00,
2013-01-09 23:02:00,72.0,69.0,-100.00,East,90,7.0,9.0,91,0.00,,,0.00,0.000000,,2013-01-10 04:02:00,
2013-01-09 23:12:00,72.0,69.0,-100.00,East,90,7.0,9.0,91,0.00,,,0.00,0.000000,,2013-01-10 04:12:00,
2013-01-09 23:22:00,72.0,69.0,-100.00,East,90,7.0,9.0,91,0.00,,,0.00,0.000000,,2013-01-10 04:22:00,
2013-01-09 23:32:00,72.0,69.0,-100.00,East,96,6.0,11.0,90,0.00,,,0.00,0.000000,,2013-01-10 04:32:00,
2013-01-09 23:53:00,72.0,69.0,-100.00,East,96,6.0,11.0,90,0.00,,,0.00,0.000000,,2013-01-10 04:53:00,